sat.trackr.live / text

‹ back to catalog

ONEWEB-0303

NORAD 49187 · 2021-083B

PAYLOAD ACTIVE UNKNOWN

§ Identity

Operator
Country
UK
Launch date
2021-09-14
Launch site
TYMSC
Launch vehicle
Mass (kg)
RCS (m²)

Purposes: comms

External: N2YO · Heavens-Above · Gunter

§ Orbital elements

Epoch: 2026-05-25T02:03:17.140320Z

Period
109.20 min
Inclination
87.9165°
Eccentricity
0.0001996
Mean motion
13.18685263 rev/d
Perigee alt
1,188.2 km
Apogee alt
1,191.3 km
Semi-major
7,567.9 km
B*
1.4632e-6
RAAN
340.0547°
Arg perigee
90.6805°
Mean anomaly
269.4556°
Rev number
22,693

§ Raw data

ONEWEB-03031 49187U 21083B   26145.08561505  .00000013  00000+0  14632-5 0  99952 49187  87.9165 340.0547 0001996  90.6805 269.4556 13.18685263226935

JSON: /api/v1/satellites/49187 · /tle

For live sub-satellite position, see the globe view (requires WebGL).

§ Visibility from observer

Set your observer location to see the next 7 days of passes ≥ 10°. The values pass through the URL so the page stays shareable.

No JS? Fill the form by hand. The geolocation button needs JavaScript.